Regional Weather Roundup
Issued by NWS

Home | Current Version | Previous Version | Graphics & Text | Print | Product List | Glossary Off
Versions: 1 2 3 4 5 6 7 8 9 10 11 12 13 14 15 16 17 18 19 20 21 22 23 24 25 26 27 28 29 30 31 32 33 34 35 36 37 38 39 40 41 42 43 44 45 46 47 48 49 50

000
ASUS43 KTOP 281008
RWRKS

WEATHER ROUNDUP FOR KANSAS
NATIONAL WEATHER SERVICE GOODLAND KS
500 AM CDT FRI AUG 28 2015

NOTE:  "FAIR" INDICATES FEW OR NO CLOUDS BELOW 12,000 FEET WITH NO
SIGNIFICANT WEATHER AND/OR OBSTRUCTIONS TO VISIBILITY.

KSZ001>006-013>018-027>032-041>047-281100-
NORTHWEST KANSAS

CITY           SKY/WX    TMP DP  RH WIND       PRES   REMARKS
GOODLAND       CLEAR     61  57  87 W9        30.03F
HAYS           MOCLDY    73  59  60 SW10      29.90R
HILL CITY      PTCLDY    70  65  84 W7        29.90S
RUSSELL        MOCLDY    73  66  78 SW14      29.87F
$$

KSZ061>065-074>080-084>089-281100-
SOUTHWEST KANSAS

CITY           SKY/WX    TMP DP  RH WIND       PRES   REMARKS
DODGE CITY     CLOUDY    69  63  81 S10       29.95R
ELKHART          N/A     69  60  73 NW7         N/A
GARDEN CITY    MOCLDY    69  62  78 NW12      29.96R
GREAT BEND     MOCLDY    72  64  78 S15G21    29.89R
LIBERAL        MOCLDY    70  63  78 W3        29.99S
PRATT          CLOUDY    72  64  78 S20G25    29.92S
$$

KSZ066>073-081>083-090>101-281100-
SOUTHEAST KANSAS

CITY           SKY/WX    TMP DP  RH WIND       PRES   REMARKS
CHANUTE        CLOUDY    66  64  93 S8        30.00S
COFFEYVILLE    MOCLDY    65  64  97 SE6       29.99S
HUTCHINSON     LGT RAIN  74  63  68 S23G35    29.88F
MEDICINE LODGE   N/A     72  68  87 S10       29.92F
NEWTON         CLOUDY    73  61  64 S14       29.94F
WICHITA INTL   LGT RAIN  74  66  76 SW10      29.93S
WICHITA JABRA  CLOUDY    74  67  78 S12       29.93F
WICHITA MCCONL CLOUDY    73  65  76 SE10      29.93F
WINFIELD       CLOUDY    72  66  81 S14       29.97F
$$

KSZ007>012-019>026-033>040-048>060-102>105-281100-
NORTHEAST KANSAS

CITY           SKY/WX    TMP DP  RH WIND       PRES   REMARKS
CONCORDIA      PTCLDY    71  67  87 S17       29.85F
EMPORIA        CLOUDY    68  64  87 S8        29.94F
LAWRENCE       CLOUDY    69  64  84 SE6       29.95F
MANHATTAN      CLOUDY    71  66  84 VRB3      29.90F
MARYSVILLE     LGT RAIN N/A N/A N/A S17G31    29.86S
OLATHE IND     CLOUDY    68  65  90 S13       29.97F
OLATHE EXE     CLOUDY    67  64  90 S10       29.97F
SALINA         CLOUDY    77  63  61 S9        29.87S
TOPEKA BILLARD CLOUDY    70  63  78 S7        29.94F
TOPEKA FORBES  CLOUDY    70  62  76 S10       29.94F
$$


USA.gov is the U.S. government's official web portal to all federal, state and local government web resources and services.